,,,PA_Meas_PMT16A,,PR_Meas_QMR101_102,,RH_Meas_QMH101,,SR_Meas_QMS101,,TA_Meas_QMH101,,GenWind,,GenWind,
date,time,status,PA,status,PR,status,RH,status,SR,status,TA,status,DirAvg,status,SpdAvg,
2008-05-05, 00:00:04,VALID,1010.04,VALID,0,VALID,94.8034,VALID,0,VALID,23.6143,VALID,141,VALID,0.435937,
2008-05-05, 00:01:04,VALID,1010.03,VALID,0,VALID,94.8644,VALID,0.105969,VALID,23.6532,VALID,130,VALID,0.444141,
2008-05-05, 00:02:04,VALID,1010,VALID,0,VALID,94.9025,VALID,0,VALID,23.7135,VALID,58,VALID,0.486328,
2008-05-05, 00:03:04,VALID,1009.95,VALID,0,VALID,94.7576,VALID,0.105969,VALID,23.6532,VALID,29,VALID,0.526563,
2008-05-05, 00:04:04,VALID,1009.95,VALID,0,VALID,94.6737,VALID,0.105969,VALID,23.5948,VALID,19,VALID,0.478906,
2008-05-05, 00:05:04,VALID,1009.91,VALID,0,VALID,94.6432,VALID,0.105969,VALID,23.5558,VALID,19,VALID,0.435156,
2008-05-05, 00:06:04,VALID,1009.94,VALID,0,VALID,94.7119,VALID,0.105969,VALID,23.5363,VALID,28,VALID,0.592188,
2008-05-05, 00:07:04,VALID,1009.91,VALID,0,VALID,94.8339,VALID,0.105969,VALID,23.5363,VALID,39,VALID,0.537109,
2008-05-05, 00:08:04,VALID,1009.93,VALID,0,VALID,94.8415,VALID,0.105969,VALID,23.4974,VALID,53,VALID,0.409375,
2008-05-05, 00:09:04,VALID,1009.95,VALID,0,VALID,94.8644,VALID,0.105969,VALID,23.4779,VALID,57,VALID,0.322266,
2008-05-05, 00:10:04,VALID,1009.95,VALID,0,VALID,94.9025,VALID,0.105969,VALID,23.4779,VALID,64,VALID,0.435937,
2008-05-05, 00:11:04,VALID,1009.93,VALID,0,VALID,94.933,VALID,0.105969,VALID,23.4584,VALID,64,VALID,0.387891,
2008-05-05, 00:12:04,VALID,1009.89,VALID,0,VALID,94.9483,VALID,0,VALID,23.4797,VALID,64,VALID,0.353125,
2008-05-05, 00:13:04,VALID,1009.85,VALID,0,VALID,94.9559,VALID,0,VALID,23.4407,VALID,64,VALID,0.317187,
2008-05-05, 00:14:04,VALID,1009.8,VALID,0,VALID,94.8873,VALID,0,VALID,23.4407,VALID,64,VALID,0.410547,
2008-05-05, 00:15:04,VALID,1009.79,VALID,0,VALID,94.9254,VALID,0,VALID,23.4212,VALID,55,VALID,0.339063,
2008-05-05, 00:16:04,VALID,1009.75,VALID,0,VALID,94.933,VALID,0,VALID,23.4017,VALID,53,VALID,0.339063,
2008-05-05, 00:17:04,VALID,1009.71,VALID,0,VALID,94.9254,VALID,0,VALID,23.3823,VALID,53,VALID,0.280859,
2008-05-05, 00:18:04,VALID,1009.69,VALID,0,VALID,94.933,VALID,0,VALID,23.3628,VALID,53,VALID,0.171094,
2008-05-05, 00:19:04,VALID,1009.64,VALID,0,VALID,94.9483,VALID,0,VALID,23.3433,VALID,53,VALID,0.182812,
2008-05-05, 00:20:04,VALID,1009.62,VALID,0,VALID,94.9711,VALID,0,VALID,23.3238,VALID,53,VALID,0.198437,
2008-05-05, 00:21:04,VALID,1009.58,VALID,0,VALID,95.0245,VALID,0,VALID,23.3238,VALID,53,VALID,0.185156,
2008-05-05, 00:22:04,VALID,1009.55,VALID,0,VALID,95.0474,VALID,0,VALID,23.3256,VALID,53,VALID,0.15,
2008-05-05, 00:23:04,VALID,1009.5,VALID,0,VALID,95.0931,VALID,0,VALID,23.3061,VALID,53,VALID,0.188281,
2008-05-05, 00:24:04,VALID,1009.46,VALID,0,VALID,95.0779,VALID,0,VALID,23.2848,VALID,53,VALID,0.208594,
2008-05-05, 00:25:04,VALID,1009.42,VALID,0,VALID,95.116,VALID,0,VALID,23.2848,VALID,53,VALID,0.0480469,
2008-05-05, 00:26:04,VALID,1009.38,VALID,0,VALID,95.1465,VALID,0,VALID,23.2848,VALID,53,VALID,0,
2008-05-05, 00:27:04,VALID,1009.34,VALID,0,VALID,95.1618,VALID,0,VALID,23.2654,VALID,53,VALID,0,
2008-05-05, 00:28:04,VALID,1009.3,VALID,0,VALID,95.1923,VALID,0,VALID,23.2654,VALID,53,VALID,0,
2008-05-05, 00:29:04,VALID,1009.27,VALID,0,VALID,95.2075,VALID,0,VALID,23.2654,VALID,53,VALID,0,
2008-05-05, 00:30:04,VALID,1009.21,VALID,0,VALID,95.2457,VALID,0,VALID,23.2654,VALID,53,VALID,0.0140625,
2008-05-05, 00:31:04,VALID,1009.19,VALID,0,VALID,95.238,VALID,0.105969,VALID,23.2654,VALID,53,VALID,0.317187,
2008-05-05, 00:32:04,VALID,1009.19,VALID,0,VALID,95.2533,VALID,0,VALID,23.2069,VALID,45,VALID,0.371875,
2008-05-05, 00:33:04,VALID,1009.15,VALID,0,VALID,95.238,VALID,0,VALID,23.2459,VALID,10,VALID,0.354297,
2008-05-05, 00:34:04,VALID,1009.16,VALID,0,VALID,95.2762,VALID,0,VALID,23.2459,VALID,328,VALID,0.329297,
2008-05-05, 00:35:04,VALID,1009.15,VALID,0,VALID,95.2762,VALID,0,VALID,23.2459,VALID,328,VALID,0.282031,
2008-05-05, 00:36:04,VALID,1009.12,VALID,0,VALID,95.2685,VALID,0,VALID,23.2459,VALID,328,VALID,0.244922,
2008-05-05, 00:37:04,VALID,1009.1,VALID,0,VALID,95.3067,VALID,0,VALID,23.2264,VALID,328,VALID,0.242578,
2008-05-05, 00:38:04,VALID,1009.1,VALID,0,VALID,95.3295,VALID,0,VALID,23.2459,VALID,328,VALID,0.178906,
2008-05-05, 00:39:04,VALID,1009.07,VALID,0,VALID,95.2762,VALID,0,VALID,23.2264,VALID,328,VALID,0.163281,
2008-05-05, 00:40:04,VALID,1009.08,VALID,0,VALID,95.3219,VALID,0,VALID,23.2459,VALID,328,VALID,0.0265625,
2008-05-05, 00:41:04,VALID,1009.08,VALID,0,VALID,95.2838,VALID,0,VALID,23.2264,VALID,328,VALID,0.0613281,
2008-05-05, 00:42:04,VALID,1009.1,VALID,0,VALID,95.2609,VALID,0,VALID,23.2069,VALID,328,VALID,0.178516,
2008-05-05, 00:43:04,VALID,1009.1,VALID,0,VALID,95.2762,VALID,0.105969,VALID,23.1874,VALID,328,VALID,0.00664063,
2008-05-05, 00:44:04,VALID,1009.11,VALID,0,VALID,95.2609,VALID,0,VALID,23.1467,VALID,328,VALID,0.0648438,
2008-05-05, 00:45:04,VALID,1009.11,VALID,0,VALID,95.2609,VALID,0.105969,VALID,23.1485,VALID,328,VALID,0,
2008-05-05, 00:46:04,VALID,1009.12,VALID,0,VALID,95.3372,VALID,0.105969,VALID,23.1679,VALID,328,VALID,0,
2008-05-05, 00:47:04,VALID,1009.08,VALID,0,VALID,95.4058,VALID,0.105969,VALID,23.1679,VALID,328,VALID,0.274219,
2008-05-05, 00:48:04,VALID,1009.04,VALID,0,VALID,95.4287,VALID,0.105969,VALID,23.1874,VALID,328,VALID,0.353516,
2008-05-05, 00:49:04,VALID,1009.02,VALID,0,VALID,95.4744,VALID,0,VALID,23.1662,VALID,328,VALID,0.465625,
2008-05-05, 00:50:04,VALID,1008.98,VALID,0,VALID,95.4211,VALID,0,VALID,23.1679,VALID,330,VALID,0.403516,
2008-05-05, 00:51:04,VALID,1008.95,VALID,0,VALID,95.3982,VALID,0.105969,VALID,23.1485,VALID,331,VALID,0.425,
2008-05-05, 00:52:04,VALID,1008.93,VALID,0,VALID,95.4516,VALID,0,VALID,23.1272,VALID,331,VALID,0.494531,
2008-05-05, 00:53:04,VALID,1008.91,VALID,0,VALID,95.4592,VALID,0,VALID,23.1485,VALID,331,VALID,0.423438,
2008-05-05, 00:54:04,VALID,1008.88,VALID,0,VALID,95.4439,VALID,0.105969,VALID,23.0883,VALID,331,VALID,0.358594,
2008-05-05, 00:55:04,VALID,1008.88,VALID,0,VALID,95.4516,VALID,0,VALID,23.09,VALID,331,VALID,0.309766,
2008-05-05, 00:56:04,VALID,1008.87,VALID,0,VALID,95.4516,VALID,0,VALID,23.129,VALID,331,VALID,0.308203,
2008-05-05, 00:57:04,VALID,1008.84,VALID,0,VALID,95.5049,VALID,0,VALID,23.09,VALID,331,VALID,0.366016,
2008-05-05, 00:58:04,VALID,1008.8,VALID,0,VALID,95.4973,VALID,0,VALID,23.129,VALID,331,VALID,0.305859,
2008-05-05, 00:59:04,VALID,1008.79,VALID,0,VALID,95.5126,VALID,0.105969,VALID,23.0493,VALID,331,VALID,0.320703,
2008-05-05, 01:00:04,VALID,1008.8,VALID,0,VALID,95.5202,VALID,0,VALID,23.0705,VALID,331,VALID,0.363281,
2008-05-05, 01:01:04,VALID,1008.74,VALID,0,VALID,95.5507,VALID,0.105969,VALID,23.0298,VALID,332,VALID,0.440625,
2008-05-05, 01:02:04,VALID,1008.73,VALID,0,VALID,95.5659,VALID,0.105969,VALID,23.0511,VALID,337,VALID,0.415625,
2008-05-05, 01:03:04,VALID,1008.73,VALID,0,VALID,95.5964,VALID,0.105969,VALID,23.0298,VALID,337,VALID,0.442578,
2008-05-05, 01:04:04,VALID,1008.75,VALID,0,VALID,95.6346,VALID,0,VALID,23.0511,VALID,337,VALID,0.493359,
2008-05-05, 01:05:04,VALID,1008.75,VALID,0,VALID,95.6269,VALID,0.105969,VALID,23.0511,VALID,340,VALID,0.513281,
2008-05-05, 01:06:04,VALID,1008.76,VALID,0,VALID,95.6574,VALID,0.105969,VALID,23.0511,VALID,342,VALID,0.372266,
2008-05-05, 01:07:04,VALID,1008.78,VALID,0,VALID,95.6574,VALID,0.105969,VALID,23.0511,VALID,342,VALID,0.226953,
2008-05-05, 01:08:04,VALID,1008.77,VALID,0,VALID,95.6346,VALID,0,VALID,23.0316,VALID,342,VALID,0,
2008-05-05, 01:09:04,VALID,1008.75,VALID,0,VALID,95.6498,VALID,0.105969,VALID,23.0121,VALID,342,VALID,0.329688,
2008-05-05, 01:10:04,VALID,1008.73,VALID,0,VALID,95.6574,VALID,0.105969,VALID,22.9926,VALID,144,VALID,0.691016,
2008-05-05, 01:11:04,VALID,1008.71,VALID,0,VALID,95.7032,VALID,0.105969,VALID,23.0316,VALID,118,VALID,0.757813,
2008-05-05, 01:12:04,VALID,1008.71,VALID,0,VALID,95.749,VALID,0.105969,VALID,23.0316,VALID,101,VALID,0.796484,
2008-05-05, 01:13:04,VALID,1008.69,VALID,0,VALID,95.7795,VALID,0,VALID,23.0511,VALID,101,VALID,0.828125,
2008-05-05, 01:14:04,VALID,1008.66,VALID,0,VALID,95.8176,VALID,0,VALID,23.0705,VALID,96,VALID,0.867578,
2008-05-05, 01:15:04,VALID,1008.64,VALID,0,VALID,95.81,VALID,0.105969,VALID,23.0688,VALID,95,VALID,0.760547,
2008-05-05, 01:16:04,VALID,1008.67,VALID,0,VALID,95.7871,VALID,0.105969,VALID,23.09,VALID,96,VALID,0.808594,
2008-05-05, 01:17:04,VALID,1008.66,VALID,0,VALID,95.8023,VALID,0,VALID,23.0705,VALID,94,VALID,0.757813,
2008-05-05, 01:18:04,VALID,1008.59,VALID,0,VALID,95.7871,VALID,0.105969,VALID,23.09,VALID,94,VALID,0.682422,
2008-05-05, 01:19:04,VALID,1008.58,VALID,0,VALID,95.8023,VALID,0.105969,VALID,23.1095,VALID,82,VALID,0.690234,
2008-05-05, 01:20:04,VALID,1008.55,VALID,0,VALID,95.749,VALID,0.105969,VALID,23.0688,VALID,76,VALID,0.382813,
2008-05-05, 01:21:04,VALID,1008.47,VALID,0,VALID,95.6956,VALID,0.105969,VALID,23.0705,VALID,71,VALID,0.396094,
2008-05-05, 01:22:04,VALID,1008.45,VALID,0,VALID,95.6651,VALID,0,VALID,23.0316,VALID,57,VALID,0.471875,
2008-05-05, 01:23:04,VALID,1008.42,VALID,0,VALID,95.6574,VALID,0,VALID,23.0316,VALID,56,VALID,0.356641,
2008-05-05, 01:24:04,VALID,1008.38,VALID,0,VALID,95.688,VALID,0,VALID,23.0316,VALID,21,VALID,0.470313,
2008-05-05, 01:25:05,VALID,1008.35,VALID,0,VALID,95.6651,VALID,0,VALID,23.0121,VALID,13,VALID,0.370703,
2008-05-05, 01:26:05,VALID,1008.3,VALID,0,VALID,95.6574,VALID,0.105969,VALID,23.0121,VALID,11,VALID,0.355859,
2008-05-05, 01:27:05,VALID,1008.27,VALID,0,VALID,95.6041,VALID,0,VALID,22.9943,VALID,4,VALID,0.391016,
2008-05-05, 01:28:05,VALID,1008.26,VALID,0,VALID,95.5888,VALID,0,VALID,22.9766,VALID,4,VALID,0.331641,
2008-05-05, 01:29:05,VALID,1008.2,VALID,0,VALID,95.5736,VALID,0,VALID,22.9164,VALID,4,VALID,0.203516,
2008-05-05, 01:30:05,VALID,1008.17,VALID,0,VALID,95.5812,VALID,0,VALID,22.8969,VALID,4,VALID,0.372266,
2008-05-05, 01:31:05,VALID,1008.17,VALID,0,VALID,95.5964,VALID,0,VALID,22.8775,VALID,4,VALID,0.282813,
2008-05-05, 01:32:05,VALID,1008.15,VALID,0,VALID,95.6346,VALID,0,VALID,22.8775,VALID,4,VALID,0.235547,
2008-05-05, 01:33:05,VALID,1008.14,VALID,0,VALID,95.6193,VALID,0,VALID,22.8173,VALID,4,VALID,0,
2008-05-05, 01:34:05,VALID,1008.13,VALID,0,VALID,95.6422,VALID,0,VALID,22.8385,VALID,4,VALID,0,
2008-05-05, 01:35:05,VALID,1008.12,VALID,0,VALID,95.6803,VALID,0,VALID,22.8775,VALID,4,VALID,0.283984,
2008-05-05, 01:36:05,VALID,1008.12,VALID,0,VALID,95.7261,VALID,0,VALID,22.8385,VALID,4,VALID,0.286719,
2008-05-05, 01:37:05,VALID,1008.11,VALID,0,VALID,95.7337,VALID,0,VALID,22.8173,VALID,340,VALID,0.554297,
2008-05-05, 01:38:05,VALID,1008.07,VALID,0,VALID,95.6803,VALID,0,VALID,22.8385,VALID,338,VALID,0.530469,
2008-05-05, 01:39:05,VALID,1008.06,VALID,0,VALID,95.7413,VALID,0,VALID,22.8385,VALID,338,VALID,0.741406,
2008-05-05, 01:40:05,VALID,1008.05,VALID,0,VALID,95.8176,VALID,0,VALID,22.8385,VALID,338,VALID,0.742969,
2008-05-05, 01:41:05,VALID,1008.07,VALID,0,VALID,95.81,VALID,0,VALID,22.858,VALID,338,VALID,0.542188,
2008-05-05, 01:42:05,VALID,1008.03,VALID,0,VALID,95.8405,VALID,0.105969,VALID,22.8969,VALID,334,VALID,0.722656,
2008-05-05, 01:43:05,VALID,1008.01,VALID,0,VALID,95.8557,VALID,0.105969,VALID,22.8545,VALID,322,VALID,0.685547,
2008-05-05, 01:44:05,VALID,1008.01,VALID,0,VALID,95.8939,VALID,0.105969,VALID,22.8935,VALID,330,VALID,0.516406,
2008-05-05, 01:45:05,VALID,1007.96,VALID,0,VALID,95.8481,VALID,0.105969,VALID,22.9147,VALID,331,VALID,0.457031,
2008-05-05, 01:46:05,VALID,1007.97,VALID,0,VALID,95.8862,VALID,0.105969,VALID,22.9147,VALID,331,VALID,0.658203,
2008-05-05, 01:47:05,VALID,1007.96,VALID,0,VALID,95.9091,VALID,0,VALID,22.9129,VALID,320,VALID,0.478516,
2008-05-05, 01:48:05,VALID,1007.95,VALID,0,VALID,95.9244,VALID,0,VALID,22.9342,VALID,320,VALID,0.551172,
2008-05-05, 01:49:05,VALID,1007.96,VALID,0,VALID,95.8405,VALID,0,VALID,22.9147,VALID,320,VALID,0.291406,
2008-05-05, 01:50:05,VALID,1007.95,VALID,0,VALID,95.8405,VALID,0.105969,VALID,22.8757,VALID,320,VALID,0.214844,
2008-05-05, 01:51:05,VALID,1007.93,VALID,0,VALID,95.8862,VALID,0.105969,VALID,22.9147,VALID,320,VALID,0.242969,
2008-05-05, 01:52:05,VALID,1007.93,VALID,0,VALID,95.8405,VALID,0.105969,VALID,22.9147,VALID,320,VALID,0,
2008-05-05, 01:53:05,VALID,1007.91,VALID,0,VALID,95.8023,VALID,0.105969,VALID,22.8545,VALID,320,VALID,0,
2008-05-05, 01:54:05,VALID,1007.89,VALID,0,VALID,95.8023,VALID,0.105969,VALID,22.8562,VALID,320,VALID,0,
2008-05-05, 01:55:05,VALID,1007.86,VALID,0,VALID,95.8176,VALID,0,VALID,22.8368,VALID,320,VALID,0,
2008-05-05, 01:56:05,VALID,1007.85,VALID,0,VALID,95.8252,VALID,0.105969,VALID,22.8368,VALID,320,VALID,0,
2008-05-05, 01:57:05,VALID,1007.83,VALID,0,VALID,95.8481,VALID,0,VALID,22.8385,VALID,320,VALID,0.0078125,
2008-05-05, 01:58:05,VALID,1007.82,VALID,0,VALID,95.8557,VALID,0,VALID,22.819,VALID,191,VALID,0.420703,
2008-05-05, 01:59:05,VALID,1007.81,VALID,0,VALID,95.8252,VALID,0,VALID,22.819,VALID,165,VALID,0.489453,
2008-05-05, 02:00:05,VALID,1007.77,VALID,0,VALID,95.8481,VALID,0,VALID,22.819,VALID,147,VALID,0.653906,
2008-05-05, 02:01:05,VALID,1007.78,VALID,0,VALID,95.8939,VALID,0,VALID,22.819,VALID,139,VALID,0.551172,
2008-05-05, 02:02:05,VALID,1007.77,VALID,0,VALID,95.8939,VALID,0,VALID,22.819,VALID,125,VALID,0.512891,
2008-05-05, 02:03:05,VALID,1007.82,VALID,0,VALID,95.9549,VALID,0,VALID,22.8969,VALID,113,VALID,0.562891,
2008-05-05, 02:04:05,VALID,1007.85,VALID,0,VALID,95.993,VALID,0,VALID,22.8969,VALID,95,VALID,0.475,
2008-05-05, 02:05:05,VALID,1007.87,VALID,0,VALID,95.9854,VALID,0,VALID,22.9359,VALID,87,VALID,0.329688,
2008-05-05, 02:06:05,VALID,1007.87,VALID,0,VALID,95.9854,VALID,0,VALID,22.9359,VALID,87,VALID,0.285156,
2008-05-05, 02:07:05,VALID,1007.88,VALID,0,VALID,95.9777,VALID,0,VALID,22.9359,VALID,87,VALID,0.152344,
2008-05-05, 02:08:05,VALID,1007.87,VALID,0,VALID,95.9625,VALID,0,VALID,22.9164,VALID,87,VALID,0.0175781,
2008-05-05, 02:09:05,VALID,1007.83,VALID,0,VALID,95.9701,VALID,0,VALID,22.9164,VALID,87,VALID,0,
2008-05-05, 02:10:05,VALID,1007.83,VALID,0,VALID,95.9777,VALID,0,VALID,22.9164,VALID,87,VALID,0,
2008-05-05, 02:11:05,VALID,1007.81,VALID,0,VALID,95.9701,VALID,0,VALID,22.9359,VALID,87,VALID,0,
2008-05-05, 02:12:05,VALID,1007.78,VALID,0,VALID,95.9549,VALID,0.105969,VALID,22.8935,VALID,87,VALID,0,
2008-05-05, 02:13:05,VALID,1007.77,VALID,0,VALID,95.9777,VALID,0.105969,VALID,22.9342,VALID,87,VALID,0,
2008-05-05, 02:14:05,VALID,1007.73,VALID,0,VALID,95.9854,VALID,0.105969,VALID,22.9147,VALID,87,VALID,0,
2008-05-05, 02:15:05,VALID,1007.75,VALID,0,VALID,95.9854,VALID,0.105969,VALID,22.9147,VALID,87,VALID,0.124609,
2008-05-05, 02:16:05,VALID,1007.73,VALID,0,VALID,95.993,VALID,0.105969,VALID,22.9536,VALID,87,VALID,0.0121094,
2008-05-05, 02:17:05,VALID,1007.72,VALID,0,VALID,95.9701,VALID,0,VALID,22.9342,VALID,87,VALID,0,
2008-05-05, 02:18:05,VALID,1007.71,VALID,0,VALID,95.9396,VALID,0,VALID,22.8935,VALID,87,VALID,0,
2008-05-05, 02:19:05,VALID,1007.73,VALID,0,VALID,95.9167,VALID,0.105969,VALID,22.8952,VALID,87,VALID,0,
2008-05-05, 02:20:05,VALID,1007.73,VALID,0,VALID,95.8862,VALID,0.105969,VALID,22.8545,VALID,87,VALID,0,
2008-05-05, 02:21:05,VALID,1007.73,VALID,0,VALID,95.871,VALID,0,VALID,22.8368,VALID,87,VALID,0,
2008-05-05, 02:22:05,VALID,1007.79,VALID,0,VALID,95.8862,VALID,0.105969,VALID,22.8368,VALID,87,VALID,0,
2008-05-05, 02:23:05,VALID,1007.79,VALID,0,VALID,95.9015,VALID,0,VALID,22.8173,VALID,87,VALID,0,
2008-05-05, 02:24:05,VALID,1007.81,VALID,0,VALID,95.9167,VALID,0.105969,VALID,22.8368,VALID,87,VALID,0,
2008-05-05, 02:25:05,VALID,1007.82,VALID,0,VALID,95.9091,VALID,0.105969,VALID,22.8155,VALID,87,VALID,0,
2008-05-05, 02:26:05,VALID,1007.81,VALID,0,VALID,95.9091,VALID,0,VALID,22.7978,VALID,87,VALID,0,
2008-05-05, 02:27:05,VALID,1007.8,VALID,0,VALID,95.9244,VALID,0,VALID,22.8385,VALID,87,VALID,0,
2008-05-05, 02:28:05,VALID,1007.82,VALID,0,VALID,95.9472,VALID,0,VALID,22.819,VALID,87,VALID,0,
2008-05-05, 02:29:05,VALID,1007.82,VALID,0,VALID,95.9472,VALID,0,VALID,22.819,VALID,87,VALID,0,
2008-05-05, 02:30:05,VALID,1007.86,VALID,0,VALID,95.9396,VALID,0,VALID,22.8385,VALID,87,VALID,0,
2008-05-05, 02:31:05,VALID,1007.91,VALID,0,VALID,95.9625,VALID,0,VALID,22.8385,VALID,87,VALID,0,
2008-05-05, 02:32:05,VALID,1007.94,VALID,0,VALID,95.9625,VALID,0,VALID,22.819,VALID,87,VALID,0,
2008-05-05, 02:33:05,VALID,1007.95,VALID,0,VALID,95.9625,VALID,0,VALID,22.8385,VALID,87,VALID,0,
2008-05-05, 02:34:05,VALID,1007.99,VALID,0,VALID,95.9777,VALID,0,VALID,22.819,VALID,87,VALID,0.197656,
2008-05-05, 02:35:05,VALID,1007.98,VALID,0,VALID,95.9701,VALID,0,VALID,22.8385,VALID,115,VALID,0.502344,
2008-05-05, 02:36:05,VALID,1007.96,VALID,0,VALID,95.9167,VALID,0,VALID,22.819,VALID,128,VALID,0.615234,
2008-05-05, 02:37:05,VALID,1007.96,VALID,0,VALID,95.932,VALID,0,VALID,22.78,VALID,134,VALID,0.497656,
2008-05-05, 02:38:05,VALID,1007.96,VALID,0,VALID,95.9244,VALID,0,VALID,22.78,VALID,135,VALID,0.459766,
2008-05-05, 02:39:05,VALID,1007.99,VALID,0,VALID,95.9167,VALID,0,VALID,22.7394,VALID,144,VALID,0.331641,
2008-05-05, 02:40:05,VALID,1008.01,VALID,0,VALID,95.9244,VALID,0,VALID,22.7394,VALID,151,VALID,0.490234,
2008-05-05, 02:41:05,VALID,1008.04,VALID,0,VALID,95.9549,VALID,0,VALID,22.7606,VALID,160,VALID,0.486719,
2008-05-05, 02:42:05,VALID,1008.05,VALID,0,VALID,95.993,VALID,0.105969,VALID,22.7783,VALID,161,VALID,0.501172,
2008-05-05, 02:43:05,VALID,1008.09,VALID,0,VALID,95.9777,VALID,0.105969,VALID,22.7588,VALID,161,VALID,0.438281,
2008-05-05, 02:44:05,VALID,1008.09,VALID,0,VALID,95.993,VALID,0,VALID,22.7783,VALID,161,VALID,0.380469,
2008-05-05, 02:45:05,VALID,1008.1,VALID,0,VALID,95.993,VALID,0.105969,VALID,22.7783,VALID,161,VALID,0.392969,
2008-05-05, 02:46:05,VALID,1008.1,VALID,0,VALID,96.0387,VALID,0.105969,VALID,22.8173,VALID,164,VALID,0.282422,
2008-05-05, 02:47:05,VALID,1008.12,VALID,0,VALID,96.0692,VALID,0.105969,VALID,22.8173,VALID,171,VALID,0.389453,
2008-05-05, 02:48:05,VALID,1008.08,VALID,0,VALID,96.0692,VALID,0.105969,VALID,22.8562,VALID,171,VALID,0.232031,
2008-05-05, 02:49:05,VALID,1008.05,VALID,0,VALID,96.0845,VALID,0.105969,VALID,22.8545,VALID,171,VALID,0,
2008-05-05, 02:50:05,VALID,1008.05,VALID,0,VALID,96.0692,VALID,0.105969,VALID,22.8935,VALID,171,VALID,0,
2008-05-05, 02:51:05,VALID,1008.04,VALID,0,VALID,96.1074,VALID,0.105969,VALID,22.9342,VALID,171,VALID,0,
2008-05-05, 02:52:05,VALID,1008.02,VALID,0,VALID,96.1074,VALID,0,VALID,22.9129,VALID,171,VALID,0.146875,
2008-05-05, 02:53:05,VALID,1008.03,VALID,0,VALID,96.0845,VALID,0.105969,VALID,22.9536,VALID,171,VALID,0.219922,
2008-05-05, 02:54:05,VALID,1008,VALID,0,VALID,96.0997,VALID,0.105969,VALID,22.9342,VALID,171,VALID,0.171484,
2008-05-05, 02:55:05,VALID,1008.01,VALID,0,VALID,96.0997,VALID,0.105969,VALID,22.9731,VALID,171,VALID,0.205469,
2008-05-05, 02:56:05,VALID,1008.01,VALID,0,VALID,96.0921,VALID,0.105969,VALID,22.9129,VALID,171,VALID,0.165234,
2008-05-05, 02:57:05,VALID,1007.99,VALID,0,VALID,96.0692,VALID,0,VALID,22.9749,VALID,171,VALID,0.0558594,
2008-05-05, 02:58:05,VALID,1008,VALID,0,VALID,96.0769,VALID,0,VALID,22.9943,VALID,171,VALID,0.125,
2008-05-05, 02:59:05,VALID,1008.03,VALID,0,VALID,96.0692,VALID,0,VALID,22.9749,VALID,169,VALID,0.250391,
2008-05-05, 03:00:05,VALID,1008.05,VALID,0,VALID,96.0616,VALID,0,VALID,22.9943,VALID,156,VALID,0.351172,
2008-05-05, 03:01:05,VALID,1008.05,VALID,0,VALID,96.1226,VALID,0,VALID,23.0333,VALID,118,VALID,0.605859,
2008-05-05, 03:02:05,VALID,1008.1,VALID,0,VALID,96.1074,VALID,0,VALID,23.0528,VALID,118,VALID,0.402734,
2008-05-05, 03:03:05,VALID,1008.12,VALID,0,VALID,96.115,VALID,0,VALID,23.0723,VALID,118,VALID,0.173828,
2008-05-05, 03:04:05,VALID,1008.15,VALID,0,VALID,96.0692,VALID,0,VALID,23.0528,VALID,69,VALID,0.452344,
2008-05-05, 03:05:05,VALID,1008.15,VALID,0,VALID,96.0616,VALID,0,VALID,23.0121,VALID,53,VALID,0.402344,
2008-05-05, 03:06:05,VALID,1008.17,VALID,0,VALID,96.0311,VALID,0,VALID,23.0333,VALID,51,VALID,0.380469,
2008-05-05, 03:07:05,VALID,1008.15,VALID,0,VALID,96.0387,VALID,0,VALID,23.0138,VALID,51,VALID,0.228516,
2008-05-05, 03:08:05,VALID,1008.18,VALID,0,VALID,96.0311,VALID,0,VALID,23.0528,VALID,51,VALID,0.346094,
2008-05-05, 03:09:05,VALID,1008.18,VALID,0,VALID,96.0311,VALID,0,VALID,23.0121,VALID,51,VALID,0.237109,
2008-05-05, 03:10:05,VALID,1008.2,VALID,0,VALID,95.993,VALID,0,VALID,23.0528,VALID,51,VALID,0.278125,
2008-05-05, 03:11:05,VALID,1008.19,VALID,0,VALID,96.0159,VALID,0,VALID,23.0316,VALID,51,VALID,0.227734,
2008-05-05, 03:12:05,VALID,1008.2,VALID,0,VALID,96.0082,VALID,0.105969,VALID,23.0511,VALID,51,VALID,0.251563,
2008-05-05, 03:13:05,VALID,1008.22,VALID,0,VALID,96.0082,VALID,0.105969,VALID,23.0298,VALID,51,VALID,0.219922,
2008-05-05, 03:14:05,VALID,1008.22,VALID,0,VALID,96.0082,VALID,0.105969,VALID,23.0511,VALID,51,VALID,0.0121094,
2008-05-05, 03:15:05,VALID,1008.22,VALID,0,VALID,95.9854,VALID,0,VALID,23.0103,VALID,51,VALID,0.0667969,
2008-05-05, 03:16:05,VALID,1008.18,VALID,0,VALID,95.9396,VALID,0,VALID,23.0316,VALID,51,VALID,0.268359,
2008-05-05, 03:17:05,VALID,1008.16,VALID,0,VALID,95.932,VALID,0.105969,VALID,23.0316,VALID,51,VALID,0.102734,
2008-05-05, 03:18:05,VALID,1008.15,VALID,0,VALID,95.932,VALID,0.105969,VALID,23.0316,VALID,51,VALID,0.191406,
2008-05-05, 03:19:05,VALID,1008.14,VALID,0,VALID,95.932,VALID,0.105969,VALID,23.0316,VALID,51,VALID,0.0699219,
2008-05-05, 03:20:05,VALID,1008.13,VALID,0,VALID,95.9015,VALID,0.105969,VALID,23.0298,VALID,51,VALID,0,
2008-05-05, 03:21:05,VALID,1008.13,VALID,0,VALID,95.9091,VALID,0.105969,VALID,23.0121,VALID,51,VALID,0,
2008-05-05, 03:22:05,VALID,1008.13,VALID,0,VALID,95.932,VALID,0.105969,VALID,23.0103,VALID,51,VALID,0.00351562,
2008-05-05, 03:23:05,VALID,1008.1,VALID,0,VALID,95.9167,VALID,0.105969,VALID,23.0511,VALID,51,VALID,0.253516,
2008-05-05, 03:24:05,VALID,1008.13,VALID,0,VALID,95.9244,VALID,0.105969,VALID,23.0298,VALID,51,VALID,0.294922,
2008-05-05, 03:25:05,VALID,1008.12,VALID,0,VALID,95.9167,VALID,0.105969,VALID,23.0298,VALID,60,VALID,0.334766,
2008-05-05, 03:26:05,VALID,1008.13,VALID,0,VALID,95.8862,VALID,0.105969,VALID,23.0511,VALID,60,VALID,0.245312,
2008-05-05, 03:27:05,VALID,1008.14,VALID,0,VALID,95.8862,VALID,0.105969,VALID,23.0298,VALID,60,VALID,0.144922,
2008-05-05, 03:28:05,VALID,1008.14,VALID,0,VALID,95.8481,VALID,0.105969,VALID,23.0316,VALID,60,VALID,0.101953,
2008-05-05, 03:29:05,VALID,1008.12,VALID,0,VALID,95.8481,VALID,0.105969,VALID,23.0121,VALID,60,VALID,0,
2008-05-05, 03:30:05,VALID,1008.14,VALID,0,VALID,95.8405,VALID,0.105969,VALID,22.9909,VALID,60,VALID,0.222266,
2008-05-05, 03:31:05,VALID,1008.17,VALID,0,VALID,95.8405,VALID,0,VALID,23.0121,VALID,60,VALID,0.243359,
2008-05-05, 03:32:05,VALID,1008.17,VALID,0,VALID,95.8633,VALID,0.105969,VALID,23.0121,VALID,143,VALID,0.539453,
2008-05-05, 03:33:05,VALID,1008.21,VALID,0,VALID,95.8328,VALID,0.105969,VALID,23.0121,VALID,143,VALID,0.628906,
2008-05-05, 03:34:05,VALID,1008.23,VALID,0,VALID,95.81,VALID,0.105969,VALID,22.9909,VALID,143,VALID,0.575391,
2008-05-05, 03:35:05,VALID,1008.25,VALID,0,VALID,95.8252,VALID,0.105969,VALID,23.0121,VALID,143,VALID,0.617969,
2008-05-05, 03:36:05,VALID,1008.27,VALID,0,VALID,95.81,VALID,0.105969,VALID,23.0121,VALID,135,VALID,0.678906,
2008-05-05, 03:37:05,VALID,1008.29,VALID,0,VALID,95.7871,VALID,0.105969,VALID,23.0121,VALID,130,VALID,0.612109,
2008-05-05, 03:38:05,VALID,1008.31,VALID,0,VALID,95.7566,VALID,0.105969,VALID,23.0316,VALID,130,VALID,0.403906,
2008-05-05, 03:39:05,VALID,1008.32,VALID,0,VALID,95.7413,VALID,0,VALID,23.0121,VALID,130,VALID,0.380859,
2008-05-05, 03:40:05,VALID,1008.34,VALID,0,VALID,95.7261,VALID,0,VALID,23.0511,VALID,130,VALID,0.153906,
2008-05-05, 03:41:05,VALID,1008.3,VALID,0,VALID,95.7032,VALID,0.105969,VALID,23.0316,VALID,98,VALID,0.135547,
2008-05-05, 03:42:05,VALID,1008.33,VALID,0,VALID,95.6498,VALID,0,VALID,23.0121,VALID,98,VALID,0.00195313,